TimeEST,TemperatureF,Dew PointF,Humidity,Sea Level PressureIn,VisibilityMPH,Wind Direction,Wind SpeedMPH,Gust SpeedMPH,PrecipitationIn,Events,Conditions,WindDirDegrees,DateUTC
12:56 AM,41.0,37.0,86,30.29,10.0,Calm,Calm,-,N/A,,Clear,0,2013-12-12 05:56:00
1:56 AM,42.1,37.9,85,30.28,10.0,NNW,5.8,-,N/A,,Clear,340,2013-12-12 06:56:00
2:56 AM,39.9,35.1,83,30.30,10.0,Calm,Calm,-,N/A,,Clear,0,2013-12-12 07:56:00
3:56 AM,41.0,37.0,86,30.30,10.0,NNW,4.6,-,N/A,,Clear,330,2013-12-12 08:56:00
4:56 AM,41.0,36.0,82,30.30,10.0,Calm,Calm,-,N/A,,Clear,0,2013-12-12 09:56:00
5:56 AM,39.9,34.0,79,30.30,10.0,NNW,3.5,-,N/A,,Clear,340,2013-12-12 10:56:00
6:56 AM,42.1,35.1,76,30.32,10.0,NNW,8.1,-,N/A,,Partly Cloudy,330,2013-12-12 11:56:00
7:56 AM,43.0,34.0,71,30.35,10.0,North,8.1,-,N/A,,Partly Cloudy,350,2013-12-12 12:56:00
8:56 AM,44.1,33.1,65,30.39,10.0,North,12.7,-,N/A,,Partly Cloudy,350,2013-12-12 13:56:00
9:56 AM,48.0,34.0,58,30.40,10.0,North,10.4,-,N/A,,Clear,10,2013-12-12 14:56:00
10:56 AM,52.0,34.0,50,30.39,10.0,NE,9.2,-,N/A,,Clear,40,2013-12-12 15:56:00
11:56 AM,53.6,30.2,41,30.37,10.0,NNE,10.4,-,N/A,,Smoke,20,2013-12-12 16:56:00
12:56 PM,55.4,30.2,38,30.35,10.0,NE,9.2,-,N/A,,Smoke,40,2013-12-12 17:56:00
1:56 PM,57.0,28.0,33,30.33,10.0,Variable,5.8,-,N/A,,Clear,0,2013-12-12 18:56:00
2:56 PM,57.9,28.0,32,30.32,10.0,NNW,5.8,-,N/A,,Clear,340,2013-12-12 19:56:00
3:56 PM,55.9,25.0,30,30.32,10.0,NNE,5.8,-,N/A,,Clear,20,2013-12-12 20:56:00
4:56 PM,53.1,27.0,37,30.35,10.0,North,5.8,-,N/A,,Clear,10,2013-12-12 21:56:00
5:56 PM,46.0,28.0,50,30.36,10.0,NNE,4.6,-,N/A,,Clear,30,2013-12-12 22:56:00
6:56 PM,45.0,37.0,74,30.38,10.0,Calm,Calm,-,N/A,,Clear,0,2013-12-12 23:56:00
7:56 PM,39.9,33.1,77,30.39,10.0,Calm,Calm,-,N/A,,Clear,0,2013-12-13 00:56:00
8:56 PM,44.1,32.0,63,30.40,10.0,ENE,4.6,-,N/A,,Clear,70,2013-12-13 01:56:00
9:56 PM,42.1,33.1,70,30.41,10.0,Calm,Calm,-,N/A,,Clear,0,2013-12-13 02:56:00
10:56 PM,39.9,32.0,73,30.40,10.0,Calm,Calm,-,N/A,,Clear,0,2013-12-13 03:56:00
11:56 PM,37.0,30.9,79,30.39,10.0,Calm,Calm,-,N/A,,Clear,0,2013-12-13 04:56:00